Regional Weather Roundup
Issued by NWS Kansas City/Pleasant Hill, MO

Home | Current Version | Previous Version | Graphics & Text | Print | Product List | Glossary Off
Versions: 1 2 3 4 5 6 7 8 9 10 11 12 13 14 15 16 17 18 19 20 21 22 23 24 25 26 27 28 29 30 31 32 33 34 35 36 37 38 39 40 41 42 43 44 45 46 47 48 49 50

791
ASUS43 KEAX 161910
RWREAX

WEATHER ROUNDUP FOR EASTERN KANSAS AND NORTHWEST MISSOURI
NATIONAL WEATHER SERVICE KANSAS CITY/PLEASANT HILL MO
200 PM CDT WED AUG 16 2017

KSZ040-057-103>105-MOZ028-029-037-043-162000-
...KANSAS CITY METROPOLITAN AREA...

CITY           SKY/WX    TMP DP  RH WIND       PRES   REMARKS
K.C. INTL      MOSUNNY   84  73  69 SW9       29.80R HX  90
K.C. DOWNTOWN  SUNNY     87  71  58 W12       29.78S HX  93
LEES SUMMIT    MOSUNNY   85  74  69 S9        29.82R HX  92
OLATHE - IXD   MOSUNNY   85  71  63 S12       29.81S HX  90
OLATHE - OJC   SUNNY     85  71  63 S8        29.82R HX  90
LAWRENCE       SUNNY     83  72  69 W8        29.80S

$$

MOZ001>008-011>017-020>025-030>033-038>040-044>046-053-054-162000-
...NORTHERN AND CENTRAL MISSOURI...

CITY           SKY/WX    TMP DP  RH WIND       PRES   REMARKS
ST. JOSEPH     SUNNY     83  72  69 W13G20    29.78S
WARRENSBURG    MOSUNNY   79  72  78 SE8       29.81R
WHITEMAN AFB   MOSUNNY   76  76 100 S9        29.80F
CLINTON        LGT RAIN  73  73 100 S9        29.85R
SEDALIA        CLOUDY    76  76 100 S9        29.85S
WARSAW         NOT AVBL
CHILLICOTHE      N/A     83  76  79 S14G21    29.79F HX  91
KIRKSVILLE     CLOUDY    79  74  84 SE16G22   29.82F

$$

MOZ041-047>049-056>058-063>065-088>090-097-162000-
...EASTERN AND SOUTHERN MISSOURI...

CITY           SKY/WX    TMP DP  RH WIND       PRES   REMARKS
ST. LOUIS INTL CLOUDY    88  73  61 VRB5      29.91F HX  95
SPIRIT OF STL  CLOUDY    88  75  65 VRB6      29.88F HX  97
COLUMBIA       PTSUNNY   81  76  84 E7        29.87S THUNDER
JEFFERSON CITY LGT RAIN  83  80  91 E8        29.85F HX  95
ROLLA          CLOUDY    83  75  77 S12G20    29.93R HX  90
OSAGE BEACH    PTSUNNY   86  75  69 S13       29.88S HX  95
SPRINGFIELD      N/A     76  69  79 NW18G32   29.94R
BRANSON        PTSUNNY   84  75  74 SW5       29.96S HX  92
JOPLIN         CLOUDY    77  76  96 N6        29.91R
WEST PLAINS    HVY RAIN  73  71  93 NW7       29.98F VSB 3/4

$$

IAZ060-094-KSZ022-034>040-054-083-096-NEZ052-066-093-162000-
...KANSAS...SOUTHEAST NEBRASKA AND IOWA...

CITY           SKY/WX    TMP DP  RH WIND       PRES   REMARKS
TOPEKA         MOSUNNY   84  72  67 SW15      29.81S
MANHATTAN      PTSUNNY   81  66  60 W7        29.84R
EMPORIA        PTSUNNY   82  72  71 SW12      29.83R
CHANUTE        SUNNY     84  74  71 SE12      29.84F HX  91
WICHITA        PTSUNNY   87  75  67 S8        29.83R HX  96
OMAHA          MOSUNNY   83  66  56 SW12      29.75F
LINCOLN        MOSUNNY   79  64  60 W14       29.80F
FALLS CITY     SUNNY     83  67  58 W12G23    29.78F
LAMONI         CLOUDY    78  71  79 S12G20    29.79R
DES MOINES     CLOUDY    81  70  69 S17G25    29.77S

$$





USA.gov is the U.S. government's official web portal to all federal, state and local government web resources and services.